Location: ????????
(60.4333°N, 46.4710°E)
Time: 19:54:29
(UTC+00:00)

USA 215 - Pass Details

Date: 25 November 2020
Orbit: 1098 x 1110 km, 123.0° (Epoch: 14 January)

Event Time Altitude Azimuth Distance (km) Brightness Sun altitude
Exits shadow 16:03:27 46° 160° (SSE) 1,462 3.6 -28.2°
Drops below altitude 10° 16:09:24 10° 224° (SW) 2,973 5.9 -28.9°
Sets 16:12:01 0° 231° (SW) 3,930 6.7 -29.2°
